TimeEDT,TemperatureF,Dew PointF,Humidity,Sea Level PressureIn,VisibilityMPH,Wind Direction,Wind SpeedMPH,Gust SpeedMPH,PrecipitationIn,Events,Conditions,WindDirDegrees,DateUTC
12:53 AM,71.1,66.9,87,29.86,10.0,Calm,Calm,-,0.00,Rain,Light Rain,0,2013-11-02 04:53:00
1:53 AM,70.0,66.0,87,29.85,10.0,Calm,Calm,-,0.01,,Overcast,0,2013-11-02 05:53:00
2:49 AM,69.8,66.2,88,29.84,10.0,Calm,Calm,-,0.00,,Overcast,0,2013-11-02 06:49:00
2:53 AM,70.0,66.0,87,29.85,10.0,Calm,Calm,-,0.00,,Overcast,0,2013-11-02 06:53:00
2:59 AM,69.8,66.2,88,29.83,10.0,Calm,Calm,-,N/A,,Overcast,0,2013-11-02 06:59:00
3:20 AM,69.8,64.4,83,29.83,10.0,Variable,3.5,-,N/A,,Overcast,0,2013-11-02 07:20:00
3:30 AM,69.8,64.4,83,29.82,10.0,Calm,Calm,-,N/A,,Overcast,0,2013-11-02 07:30:00
3:53 AM,68.0,64.0,87,29.84,10.0,Calm,Calm,-,N/A,,Overcast,0,2013-11-02 07:53:00
4:53 AM,66.9,62.1,84,29.86,10.0,Calm,Calm,-,N/A,,Mostly Cloudy,0,2013-11-02 08:53:00
5:53 AM,66.0,61.0,84,29.86,10.0,Variable,3.5,-,N/A,,Partly Cloudy,0,2013-11-02 09:53:00
6:53 AM,64.9,60.1,84,29.90,10.0,Calm,Calm,-,N/A,,Clear,0,2013-11-02 10:53:00
7:53 AM,64.0,59.0,84,29.91,10.0,Calm,Calm,-,N/A,,Mostly Cloudy,0,2013-11-02 11:53:00
8:53 AM,63.0,59.0,87,29.94,10.0,Calm,Calm,-,N/A,,Mostly Cloudy,0,2013-11-02 12:53:00
9:53 AM,68.0,59.0,73,29.96,10.0,Calm,Calm,-,N/A,,Mostly Cloudy,0,2013-11-02 13:53:00
10:53 AM,70.0,53.1,55,29.97,10.0,Variable,5.8,-,N/A,,Mostly Cloudy,0,2013-11-02 14:53:00
11:53 AM,69.1,53.1,57,29.98,10.0,Calm,Calm,-,N/A,,Mostly Cloudy,0,2013-11-02 15:53:00
12:53 PM,70.0,51.1,51,29.96,10.0,Variable,5.8,-,N/A,,Scattered Clouds,0,2013-11-02 16:53:00
1:53 PM,75.0,50.0,41,29.94,10.0,Variable,4.6,-,N/A,,Partly Cloudy,0,2013-11-02 17:53:00
2:53 PM,75.9,46.0,35,29.91,10.0,Variable,5.8,-,N/A,,Partly Cloudy,0,2013-11-02 18:53:00
3:53 PM,77.0,46.9,34,29.90,10.0,Variable,5.8,-,N/A,,Partly Cloudy,0,2013-11-02 19:53:00
4:53 PM,77.0,45.0,32,29.91,10.0,NW,4.6,-,N/A,,Clear,320,2013-11-02 20:53:00
5:53 PM,73.0,48.0,41,29.92,10.0,Variable,3.5,-,N/A,,Clear,0,2013-11-02 21:53:00
6:53 PM,64.0,52.0,65,29.94,10.0,Calm,Calm,-,N/A,,Clear,0,2013-11-02 22:53:00
7:53 PM,59.0,52.0,78,29.97,10.0,Calm,Calm,-,N/A,,Clear,0,2013-11-02 23:53:00
8:53 PM,57.9,52.0,81,30.00,10.0,Calm,Calm,-,N/A,,Clear,0,2013-11-03 00:53:00
9:53 PM,55.9,51.1,84,30.02,10.0,Calm,Calm,-,N/A,,Clear,0,2013-11-03 01:53:00
10:53 PM,60.1,50.0,69,30.04,10.0,Calm,Calm,-,N/A,,Scattered Clouds,0,2013-11-03 02:53:00
11:53 PM,60.1,48.0,64,30.04,10.0,Variable,3.5,-,N/A,,Clear,0,2013-11-03 03:53:00